Location: Stanford
(52.2833°N, 2.4333°W)
Time: 03:18:19
(UTC+00:00)

Cosmos 2026 Rocket - Pass Details

Date: 22 January 2021
Orbit: 940 x 1000 km, 82.9° (Epoch: 24 February)

Event Time Altitude Azimuth Distance (km) Brightness Sun altitude
Rises 18:35:32 0° 167° (SSE) 3,609 6.9 -17.4°
Reaches altitude 10° 18:38:05 10° 162° (SSE) 2,674 6.2 -17.8°
Maximum altitude 18:43:53 47° 90° (E) 1,254 4.1 -18.7°
Drops below altitude 10° 18:49:49 10° 19° (NNE) 2,730 6.1 -19.6°
Sets 18:52:26 0° 14° (NNE) 3,691 6.8 -20.0°
